Weather Roundup
Issued by NWS

Home | Current Version | Previous Version | Text Only | Print | Product List | Glossary On
Versions: 1 2 3 4 5 6 7 8 9 10 11 12 13 14 15 16 17 18 19 20 21 22 23 24 25 26 27 28 29 30 31 32 33 34 35 36 37 38 39 40 41 42 43 44 45 46 47 48 49 50
000
NZUS93 KARX 061910
HRRWXR

CURRENT HOURLY OBSERVATIONS ACROSS
MUCH OF THE UPPER MISSISSIPPI VALLEY
NATIONAL WEATHER SERVICE LA CROSSE WI
200 PM CDT MON JUL 06 2015


...SOUTHEAST MINNESOTA...


CITY           SKY/WX    TMP DP  RH WIND       PRES   REMARKS
ROCHESTER      LGT RAIN  72  69  90 W14       29.85R
ROCHESTER/MAYO CLOUDY    71  71 100 W14G24    29.83S
WINONA         CLOUDY    73  68  83 SW5       29.81S
AUSTIN         CLOUDY    75  70  83 W16       29.85S
ALBERT LEA     CLOUDY    66  66 100 NW14G21   29.89R
DODGE CENTER   LGT RAIN  70  66  88 N21G29    29.86R
PRESTON        CLOUDY    73  67  81 SW6       29.85S
OWATONNA       DRIZZLE   64  61  88 N22G32    29.90R
FARIBAULT      CLOUDY    61  61 100 N15G29    29.91R
$$

...ELSEWHERE IN MINNESOTA...


CITY           SKY/WX    TMP DP  RH WIND       PRES   REMARKS
MINNEAPOLIS    LGT RAIN  65  61  87 N12       29.91R FOG
INTNL FALLS    CLOUDY    61  45  55 NW15G22   29.99S
DULUTH         CLOUDY    63  59  87 N5        29.93F FOG
RED WING       LGT RAIN  66  63  88 N12G21    29.85R
REDWOOD FALLS  PTSUNNY   72  60  66 N15G24    29.97R HAZE
MANKATO        CLOUDY   N/A N/A N/A N22G28    29.91S
WORTHINGTON    CLOUDY    68  59  73 N15G23    29.98R
FAIRMONT       CLOUDY    70  59  68 N15       29.92S
$$

...SOUTHWEST WISCONSIN...


CITY           SKY/WX    TMP DP  RH WIND       PRES   REMARKS
LA CROSSE      CLOUDY    76  68  76 SW6       29.82R
PRAIRIE DU CHI CLOUDY    77  68  73 SW7       29.84R
BOSCOBEL       CLOUDY    79  70  74 VRB7      29.83S
LONE ROCK      CLOUDY    80  69  69 SW9       29.85R
PLATTEVILLE    CLOUDY    78  71  79 S14       29.86S
FORT MC COY    CLOUDY    76  67  73 SW3       29.83R
CAMP DOUGLAS   CLOUDY    79  75  89 SW6       29.81S
VIROQUA        MOCLDY    75  69  79 SW14      29.85R
WIS DELLS      CLOUDY    80  69  69 SW9       29.83R
$$

...ELSEWHERE IN WISCONSIN...


CITY           SKY/WX    TMP DP  RH WIND       PRES   REMARKS
MILWAUKEE      LGT RAIN  75  70  84 SW7       29.90R
MADISON        CLOUDY    76  70  82 S10       29.82F
GREEN BAY      CLOUDY    78  71  79 SW7       29.82F
EAU CLAIRE     RAIN      71  69  93 NW20G25   29.80R
BLACK RVR FLS  CLOUDY    75  74  96 SW3       29.80F
MEDFORD        LGT RAIN  70  69  96 CALM      29.80F
WAUSAU         LGT RAIN  75  69  81 S9        29.80F
WIS RAPIDS     CLOUDY    78  68  71 W6        29.82F
MARSHFIELD     LGT RAIN  75  68  78 SW9       29.81F
RICE LAKE      RAIN      61  58  90 N14G23    29.89R
$$

...NORTHEAST IOWA...


CITY           SKY/WX    TMP DP  RH WIND       PRES   REMARKS
DECORAH          N/A    N/A N/A N/A MISG        N/A
MASON CITY     CLOUDY    79  69  71 W21       29.87S
CHARLES CITY   CLOUDY    75  75 100 W9G16     29.86S
OELWEIN        CLOUDY    75  72  88 SW15G22   29.88R
$$

...ELSEWHERE IN IOWA...


CITY           SKY/WX    TMP DP  RH WIND       PRES   REMARKS
DES MOINES     LGT RAIN  77  70  79 NW10      29.88R
IOWA CITY      LGT RAIN  76  73  91 S9        29.88S FOG
FORT DODGE     CLOUDY    79  72  78 W13       29.89F
$$

...NORTHERN ILLINOIS...


CITY           SKY/WX    TMP DP  RH WIND       PRES   REMARKS
CHICAGO-OHARE  CLOUDY    79  66  64 W23G32    29.92R THUNDER
CHICAGO-MIDWAY CLOUDY    88  68  51 S16G25    29.91F HX  91
MOLINE         CLOUDY    81  71  71 SW10      29.88F
ROCKFORD       CLOUDY    75  70  84 S7        29.89F
PEORIA         CLOUDY    86  74  67 SW12      29.92F HX  94
$$

NOTE: "FAIR" INDICATES FEW OR NO CLOUDS BELOW 12,000 FEET WITH NO
SIGNIFICANT WEATHER AND/OR OBSTRUCTIONS TO VISIBILITY. WIND
SPEEDS ARE IN MILES-PER-HOUR.



USA.gov is the U.S. government's official web portal to all federal, state and local government web resources and services.